Page, AZ

1:53 AM MDT on September 23, 2017 (GMT -0600)
Page Municipal

Weather History for KPGA - April, 2014

Change the Weather History Date:

Monday, April 21, 2014

  Actual Average Record
Temperature  
Mean Temperature 70 °F -  
Max Temperature 84 °F 68 °F 89 °F (1989)
Min Temperature 55 °F 45 °F 31 °F (1967)
Cooling Degree Days 4    
Growing Degree Days 20 (Base 50)    
Moisture  
Dew Point 33 °F    
Average Humidity 24    
Maximum Humidity 44    
Minimum Humidity 7    
Precipitation  
Precipitation 0.00 in - - ()
Sea Level Pressure  
Sea Level Pressure 29.93 in    
Wind  
Wind Speed 4 mph (SE)    
Max Wind Speed 9 mph    
Max Gust Speed -    
Visibility 10 miles    
Events      
Averages and records for this station are not official NWS values.
T = Trace of Precipitation, MM = Missing Value Source: NWS Daily Summary

Daily Weather History Graph

Daily Weather History Graph

Search for Another Location

Airport or City:

Trip Planner

Search our weather history database for the weather conditions in past years. The results will help you decide how hot, cold, wet, or windy it might be!

Date:

Astronomy

Apr. 21, 2014 Rise Set
Actual Time 5:43 AM MST 7:05 PM MST
Civil Twilight 5:16 AM MST 7:33 PM MST
Nautical Twilight 4:44 AM MST 8:05 PM MST
Astronomical Twilight 4:10 AM MST 8:39 PM MST
Moon 12:36 AM MST (4/21) 11:16 AM MST (4/21)
Length of Visible Light 14h 16m
Length of Day
13h 22m
Waning Gibbous, 56% of the Moon is Illuminated
Apr 21
Waning Gibbous
Apr 22
Last Quarter
Apr 28
New
May 6
First Quarter
May 14
Full

Hourly Weather History & Observations

Time (MST) Temp. Dew Point Humidity Pressure Visibility Wind Dir Wind Speed Gust Speed Precip Events Conditions
12:53 AM 62.1 °F 36.0 °F 38% 29.97 in 10.0 mi Calm Calm - N/A   Clear
1:53 AM 62.1 °F 35.1 °F 37% 29.97 in 10.0 mi South 4.6 mph - N/A   Clear
2:53 AM 63.0 °F 35.1 °F 35% 29.97 in 10.0 mi South 4.6 mph - N/A   Clear
3:53 AM 61.0 °F 34.0 °F 36% 29.99 in 10.0 mi SW 4.6 mph - N/A   Partly Cloudy
4:53 AM 59.0 °F 34.0 °F 39% 29.99 in 10.0 mi Calm Calm - N/A   Clear
5:53 AM 55.9 °F 34.0 °F 44% 30.02 in 10.0 mi Calm Calm - N/A   Clear
6:53 AM 60.1 °F 34.0 °F 38% 30.03 in 10.0 mi SE 4.6 mph - N/A   Scattered Clouds
7:53 AM 64.0 °F 35.1 °F 34% 30.04 in 10.0 mi ESE 3.5 mph - N/A   Partly Cloudy
8:53 AM 68.0 °F 35.1 °F 30% 30.03 in 10.0 mi Calm Calm - N/A   Clear
9:53 AM 71.1 °F 35.1 °F 27% 30.04 in 10.0 mi Variable 4.6 mph - N/A   Clear
10:53 AM 73.9 °F 36.0 °F 25% 30.03 in 10.0 mi NNW 5.8 mph - N/A   Clear
11:53 AM 79.0 °F 35.1 °F 20% 29.99 in 10.0 mi ENE 8.1 mph - N/A   Clear
12:53 PM 80.1 °F 33.1 °F 18% 29.96 in 10.0 mi NNE 8.1 mph - N/A   Clear
1:53 PM 82.9 °F 33.1 °F 17% 29.92 in 10.0 mi Variable 5.8 mph - N/A   Clear
2:53 PM 82.9 °F 32.0 °F 16% 29.88 in 10.0 mi NE 6.9 mph - N/A   Clear
3:53 PM 84.9 °F 32.0 °F 15% 29.85 in 10.0 mi North - - N/A   Clear
4:53 PM 84.0 °F 30.9 °F 15% 29.83 in 10.0 mi NE 8.1 mph - N/A   Clear
5:53 PM 82.0 °F 30.9 °F 16% 29.83 in 10.0 mi NE 9.2 mph - N/A   Clear
6:53 PM 80.1 °F 32.0 °F 17% 29.82 in 10.0 mi North 5.8 mph - N/A   Partly Cloudy
7:53 PM 77.0 °F 30.0 °F 18% 29.82 in 10.0 mi South 4.6 mph - N/A   Scattered Clouds
8:53 PM 75.9 °F 30.9 °F 19% 29.83 in 10.0 mi South 9.2 mph - N/A   Clear
9:53 PM 73.0 °F 30.9 °F 21% 29.83 in 10.0 mi SSW 9.2 mph - N/A   Clear
10:53 PM 72.0 °F 30.9 °F 22% 29.81 in 10.0 mi SSW 9.2 mph - N/A   Clear
11:53 PM 71.1 °F 30.9 °F 23% 29.80 in 10.0 mi South 9.2 mph - N/A   Clear